Warning: Javascript must be enabled to use all the features on this page!


Page Loading - Please Wait...

Click to hideNews Bulletins

USGS 04189260 Blanchard River at Ottawa OH

PROVISIONAL DATA SUBJECT TO REVISION

Click to hidestation-specific text
Station operated in cooperation with the Village of Ottawa and the National Streamflow Information Program.
 04189260 Blanchard River at Ottawa, OH
 LOCATION.--Lat 41°01'01", long 84°02'49", Putnam County, OH, Hydrologic 
     Unit 04100008, on right bank at downstream side of Oak Street, 200 ft. upstream 
     of B&O railroad bridge, 800 ft. upstream of SR65 bridge, 1,200 ft. southeast of 
     intersection of SR65 and US RT224 in the village of Ottawa, OH.
 DRAINAGE AREA.--628 mi2.
 PERIOD OF RECORD.--October 2009 to current water year.

Boating safety tips
Available Parameters Available Period
All 2 Available Parameters for this site
  
00065 Gage height 2014-12-28  2015-04-27
00060 Discharge 2009-10-01  2015-04-27

Graph
Graph w/ stats
Graph w/o stats
Graph w/ (up to 3) parms
Table
Tab-separated
Days  (7)
 

  -- or --
Begin date
 

End date
 

Summary of all available data for this site
Instantaneous-data availability statement
Gage height, feet
TIMEApr 20Apr 21Apr 22Apr 23Apr 24Apr 25Apr 26Apr 27
00:00 EDT7.90P  11.67P  9.62P  8.38P  7.55P  7.02P  6.90P  6.94P  
00:30 EDT7.98P  11.66P  9.57P  8.36P  7.53P  7.01P  6.91P  6.94P  
01:00 EDT8.07P  11.63P  9.54P  8.35P  7.52P  7.01P  6.91P  6.94P  
01:30 EDT8.15P  11.59P  9.50P  8.33P  7.50P  7.01P  6.92P  6.93P  
02:00 EDT8.24P  11.56P  9.47P  8.31P  7.49P  7.01P  6.92P  6.93P  
02:30 EDT8.33P  11.52P  9.43P  8.29P  7.47P  7.00P  6.92P  6.93P  
03:00 EDT8.42P  11.49P  9.40P  8.27P  7.46P  7.00P  6.92P  6.92P  
03:30 EDT8.50P  11.45P  9.36P  8.26P  7.45P  7.00P  6.92P  6.92P  
04:00 EDT8.59P  11.41P  9.34P  8.24P  7.44P  7.00P  6.93P  6.92P  
04:30 EDT8.68P  11.35P  9.30P  8.22P  7.42P  7.00P  6.93P  6.91P  
05:00 EDT8.76P  11.31P  9.27P  8.21P  7.42P  6.99P  6.93P  6.91P  
05:30 EDT8.84P  11.27P  9.24P  8.19P  7.40P  6.99P  6.93P  6.91P  
06:00 EDT8.92P  11.22P  9.21P  8.17P  7.39P  6.99P  6.94P  6.91P  
06:30 EDT8.99P  11.17P  9.18P  8.16P  7.37P  6.98P  6.94P  6.90P  
07:00 EDT9.05P  11.13P  9.15P  8.14P  7.36P  6.98P  6.94P  6.90P  
07:30 EDT9.13P  11.07P  9.12P  8.13P  7.35P  6.98P  6.94P  6.90P  
08:00 EDT9.20P  11.03P  9.10P  8.11P  7.34P  6.98P  6.94P  6.89P  
08:30 EDT9.27P  10.99P  9.07P  8.09P  7.32P  6.97P  6.94P  6.89P  
09:00 EDT9.34P  10.93P  9.05P  8.08P  7.31P  6.97P  6.94P  6.89P  
09:30 EDT9.42P  10.88P  9.02P  8.06P  7.29P  6.97P  6.94P  6.89P  
10:00 EDT9.51P  10.84P  8.99P  8.05P  7.28P  6.96P  6.94P  6.88P  
10:30 EDT9.60P  10.78P  8.97P  8.03P  7.26P  6.95P  6.94P  6.88P  
11:00 EDT9.70P  10.75P  8.95P  8.02P  7.25P  6.95P  6.94P  6.88P  
11:30 EDT9.79P  10.71P  8.92P  7.99P  7.24P  6.94P  6.95P  6.88P  
12:00 EDT9.88P  10.65P  8.89P  7.98P  7.22P  6.93P  6.95P  6.87P  
12:30 EDT9.98P  10.62P  8.87P  7.95P  7.20P  6.93P  6.95P  6.87P  
13:00 EDT10.07P  10.57P  8.85P  7.93P  7.19P  6.92P  6.95P  6.87P  
13:30 EDT10.17P  10.52P  8.83P  7.91P  7.17P  6.92P  6.94P  6.87P  
14:00 EDT10.28P  10.47P  8.81P  7.89P  7.16P  6.90P  6.95P  6.86P  
14:30 EDT10.41P  10.43P  8.79P  7.87P  7.15P  6.90P  6.94P  6.86P  
15:00 EDT10.53P  10.37P  8.77P  7.85P  7.14P  6.89P  6.94P  6.86P  
15:30 EDT10.67P  10.33P  8.74P  7.83P  7.13P  6.89P  6.95P  6.85P  
16:00 EDT10.81P  10.29P  8.73P  7.81P  7.13P  6.88P  6.95P  6.85P  
16:30 EDT10.96P  10.25P  8.70P  7.79P  7.12P  6.88P  6.95P  6.84P  
17:00 EDT11.09P  10.19P  8.67P  7.76P  7.11P  6.87P  6.95P  6.84P  
17:30 EDT11.21P  10.15P  8.65P  7.75P  7.11P  6.87P  6.95P  6.83P  
18:00 EDT11.32P  10.12P  8.63P  7.73P  7.10P  6.87P  6.95P  6.83P  
18:30 EDT11.42P  10.07P  8.62P  7.72P  7.09P  6.87P  6.95P  6.83P  
19:00 EDT11.50P  10.02P  8.60P  7.70P  7.08P  6.88P  6.96P  6.82P  
19:30 EDT11.57P  9.98P  8.57P  7.68P  7.08P  6.88P  6.95P  6.81P  
20:00 EDT11.62P  9.94P  8.55P  7.67P  7.07P  6.88P  6.96P  6.81P  
20:30 EDT11.66P  9.89P  8.53P  7.65P  7.06P  6.88P  6.96P  6.80P  
21:00 EDT11.69P  9.85P  8.50P  7.63P  7.05P  6.88P  6.96P  6.80P  
21:30 EDT11.70P  9.80P  8.49P  7.62P  7.05P  6.88P  6.95P  6.79P  
22:00 EDT11.71P  9.76P  8.47P  7.60P  7.04P  6.89P  6.95P  6.79P  
22:30 EDT11.72P  9.73P  8.44P  7.58P  7.04P  6.89P  6.95P  6.78P  
23:00 EDT11.71P  9.68P  8.42P  7.57P  7.03P  6.90P  6.95P  6.77P  
23:30 EDT11.70P  9.65P  8.40P  7.56P  7.03P  6.90P  6.95P  6.77P  
COUNT4848484848484848
MAX11.7211.679.628.387.557.026.966.94
MIN7.909.658.407.567.036.876.906.77

Explanation
  P  Provisional data subject to revision.